Location: *
(46.1866°S, 178.5290°W)
Time: 17:27:43
(UTC+00:00)

Radarsat - Pass Details

Date: 19 May 2021
Orbit: 788 x 790 km, 98.6° (Epoch: 17 June)

Event Time Altitude Azimuth Distance (km) Brightness Sun altitude
Exits shadow 06:21:24 - 163° (SSE) 2,649 7.0 -19.4°
Reaches altitude 10° 06:22:03 10° 162° (SSE) 2,392 6.8 -19.5°
Maximum altitude 06:27:20 73° 77° (ENE) 839 4.5 -20.4°
Drops below altitude 10° 06:32:34 10° 352° (N) 2,362 7.2 -21.3°
Sets 06:34:53 0° 350° (N) 3,283 8.0 -21.7°
